Flag for U.S.A. Weather past 2 weeks in Fort Lauderdale, Florida, U.S.A.

Now
69 °F

Passing clouds.


Feels Like: 69 °F
Forecast: 60 / 73 °F
Wind: 13 mph from Northeast

Location: Fort Lauderdale / Hollywood International Airport

Current Time: Mar 29, 2015 at 7:26:46 PM

Latest Report: Mar 29, 2015 at 6:53 PM


Visibility: 10 mi

Pressure: 30.24 "Hg

Humidity: 42%

Dew point: 45 °F

Location of Fort LauderdaleLocation

Historic Weather in Fort Lauderdale — Graph

°F

Fort Lauderdale temperature yesterday

Maximum temperature yesterday: 72 °F (at 1:53 PM)
Minimum temperature yesterday: 61 °F (at 6:53 AM)
Average temperature yesterday: 66 °F

Past Weeks' High & Low Weather Summary

 TemperatureHumidityPressure
High90 °F (Mar 27, 1:53 PM)100% (Mar 25, 6:53 AM)30.30 "Hg (Mar 25, 6:53 AM)
Low56 °F (Mar 29, 6:53 AM)38% (Mar 29, 4:53 PM)29.79 "Hg (Mar 27, 4:53 PM)
Average75 °F74%30.04 "Hg
* Reported Mar 14 5:53 PM — Mar 29 5:53 PM, Fort Lauderdale, Weather by CustomWeather, © 2015

Note: Actual official high and low records may vary slightly from our data, if they occured in-between our weather recording intervals... More about our weather records

Advertising

Fort Lauderdale weather history for previous 24 hours

 ConditionsComfort  
Time TempWeatherWind HumidityBarometerVisibility
5:53 PM
Sun, Mar 29
71 °FPassing clouds.18 mph42%30.24 "Hg10 mi
4:53 PM73 °FScattered clouds.20 mph38%30.23 "Hg10 mi
3:53 PM74 °FScattered clouds.17 mph46%30.24 "Hg10 mi
2:53 PM75 °FScattered clouds.14 mph42%30.24 "Hg10 mi
1:53 PM74 °FPassing clouds.17 mph46%30.27 "Hg10 mi
12:53 PM76 °FPassing clouds.13 mph47%30.28 "Hg10 mi
11:53 AM73 °FPassing clouds.8 mph48%30.30 "Hg10 mi
10:53 AM71 °FScattered clouds.6 mph41%30.30 "Hg10 mi
9:53 AM66 °FScattered clouds.10 mph43%30.29 "Hg10 mi
8:53 AM62 °FPartly sunny.6 mph54%30.27 "Hg10 mi
7:53 AM56 °FPassing clouds.8 mph65%30.25 "Hg10 mi
6:53 AM56 °FPassing clouds.8 mph67%30.23 "Hg10 mi
5:53 AM57 °FPassing clouds.10 mph64%30.20 "Hg10 mi
4:53 AM58 °FPassing clouds.6 mph72%30.19 "Hg10 mi
3:53 AM59 °FPassing clouds.5 mph64%30.19 "Hg10 mi
2:53 AM60 °FPassing clouds.6 mph62%30.20 "Hg10 mi
1:53 AM61 °FPassing clouds.8 mph56%30.21 "Hg10 mi
12:53 AM63 °FPassing clouds.6 mph50%30.22 "Hg10 mi
11:53 PM
Sat, Mar 28
63 °FPassing clouds.7 mph54%30.21 "Hg10 mi
10:53 PM64 °FPartly cloudy.3 mph54%30.20 "Hg10 mi
9:53 PM65 °FOvercast.3 mph52%30.19 "Hg10 mi
8:53 PM66 °FMostly cloudy.5 mph49%30.17 "Hg10 mi
7:53 PM66 °FBroken clouds.8 mph49%30.14 "Hg10 mi
Weather by CustomWeather, © 2015

See weather overviewHow to use our weather pages